EA8CHC Sevilla ES current weather conditions

sailwx.info

Wind from 169 at 1 knots gusting 5

Air temperature 25.0° C
Dewpoint 16.9° C

Last reported at 2016-Aug-31 22:52 UTC.
Time now 2016-Aug-31 23:32 UTC

Location: N 37°26' W 006°03'.
View on Google Maps.

See reports from other nearby stations

  
Tides and Currents Weather Stations Pressure Air Temp Water Temp Dewpoint Dewpoint Depression Visibility Wind Speed Wind Dir Waves Ship Positions
date/time (UTC)wind fromknots sea level pressurealtimeterstation pressurevisibilityair tempwater tempwave heightnotes
2016-Aug-31 22:52 169 1 gusting 5 25.0
2016-Aug-31 22:47 169 2 gusting 5 25.0
2016-Aug-31 22:42 169 1 gusting 3 25.0
2016-Aug-31 22:37 273 0 gusting 3 25.6
2016-Aug-31 22:32 273 0 gusting 3 25.6
2016-Aug-31 22:27 273 0 gusting 0 25.6
2016-Aug-31 22:22 273 26.1
2016-Aug-31 22:17 273 26.1
2016-Aug-31 22:12 273 26.1
2016-Aug-31 22:07 273 0 gusting 3 26.1
2016-Aug-31 22:02 273 0 gusting 4 26.1
2016-Aug-31 21:57 275 0 gusting 4 26.1
2016-Aug-31 21:52 275 0 gusting 5 26.1
2016-Aug-31 21:47 275 1 gusting 5 26.1
2016-Aug-31 21:42 258 0 gusting 3 26.7
2016-Aug-31 21:37 209 26.1
2016-Aug-31 21:32 105 0 26.1
2016-Aug-31 21:27 105 0 26.1
2016-Aug-31 21:22 104 26.1
2016-Aug-31 21:17 105 26.7
2016-Aug-31 21:12 105 26.7
2016-Aug-31 21:07 105 0 gusting 4 26.7
2016-Aug-31 21:02 105 0 gusting 5 26.7
2016-Aug-31 20:57 105 0 gusting 5 26.7
2016-Aug-31 20:52 106 0 gusting 5 26.7
2016-Aug-31 20:47 215 0 gusting 7 27.2
2016-Aug-31 20:42 287 1 gusting 11 27.2
2016-Aug-31 20:37 293 2 gusting 11 27.2
2016-Aug-31 20:32 300 4 gusting 12 27.2
2016-Aug-31 20:27 216 5 gusting 12 27.2
2016-Aug-31 20:22 232 6 gusting 12 27.2
2016-Aug-31 20:17 223 6 gusting 12 27.2
2016-Aug-31 20:12 231 7 gusting 14 27.2
2016-Aug-31 20:07 246 7 gusting 14 27.2
2016-Aug-31 20:02 217 6 gusting 12 27.8
2016-Aug-31 19:57 243 7 gusting 12 27.8
2016-Aug-31 19:52 207 7 gusting 13 27.8
2016-Aug-31 19:47 207 7 gusting 14 27.8
2016-Aug-31 19:42 211 7 gusting 14 27.8
2016-Aug-31 19:37 211 7 gusting 14 27.8
2016-Aug-31 19:32 232 6 gusting 11 28.3
2016-Aug-31 19:27 251 6 gusting 11 28.3
2016-Aug-31 19:22 212 6 gusting 13 28.3
2016-Aug-31 19:17 207 6 gusting 13 28.3
2016-Aug-31 19:12 215 6 gusting 11 28.3
2016-Aug-31 19:07 209 6 gusting 11 28.3
2016-Aug-31 19:02 217 6 gusting 12 28.9
2016-Aug-31 18:57 185 5 gusting 12 28.9
2016-Aug-31 18:52 191 5 gusting 13 28.9
2016-Aug-31 18:47 188 4 gusting 13 29.4
2016-Aug-31 18:42 186 5 gusting 14 29.4
2016-Aug-31 18:37 209 6 gusting 14 29.4
2016-Aug-31 18:32 201 6 gusting 14 29.4
2016-Aug-31 18:27 232 6 gusting 14 30.0
2016-Aug-31 18:22 198 6 gusting 14 30.0
2016-Aug-31 18:17 199 6 gusting 14 30.0
2016-Aug-31 18:12 215 6 gusting 15 30.0
2016-Aug-31 18:07 219 6 gusting 15 30.0
2016-Aug-31 18:02 229 7 gusting 12 30.6
2016-Aug-31 17:57 188 7 gusting 12 30.6
2016-Aug-31 17:52 192 7 gusting 13 30.6
2016-Aug-31 17:47 232 7 gusting 13 30.6
2016-Aug-31 17:42 200 7 gusting 13 30.6
2016-Aug-31 17:37 226 7 gusting 14 31.1
2016-Aug-31 17:32 227 7 gusting 14 31.1
2016-Aug-31 17:27 188 7 gusting 14 31.1
2016-Aug-31 17:22 216 7 gusting 13 31.1
2016-Aug-31 17:17 195 7 gusting 13 31.1
2016-Aug-31 17:12 200 7 gusting 13 31.1
2016-Aug-31 17:07 235 6 gusting 13 31.7
2016-Aug-31 17:02 218 6 gusting 11 31.7
2016-Aug-31 16:57 200 6 gusting 11 31.7
2016-Aug-31 16:52 262 5 gusting 11 31.7
2016-Aug-31 16:47 221 5 gusting 11 31.7
2016-Aug-31 16:42 198 3 gusting 11 32.2
2016-Aug-31 16:37 246 5 gusting 10 32.2
2016-Aug-31 16:32 213 5 gusting 8 31.7
2016-Aug-31 16:27 192 4 gusting 8 32.2
2016-Aug-31 16:22 191 3 gusting 8 32.2
2016-Aug-31 16:17 246 3 gusting 8 32.2
2016-Aug-31 16:12 145 4 gusting 10 31.7
2016-Aug-31 16:07 163 4 gusting 10 32.2
2016-Aug-31 16:02 171 4 gusting 10 32.2
2016-Aug-31 15:57 172 2 gusting 10 32.2
2016-Aug-31 15:52 216 3 gusting 11 31.7
2016-Aug-31 15:47 251 4 gusting 11 31.7
2016-Aug-31 15:42 205 3 gusting 9 31.7
2016-Aug-31 15:37 161 4 gusting 9 31.7
2016-Aug-31 15:32 151 3 gusting 9 31.7
2016-Aug-31 15:27 157 1 gusting 9 31.7
2016-Aug-31 15:22 196 3 gusting 10 31.7
2016-Aug-31 15:17 196 5 gusting 10 31.7
2016-Aug-31 15:12 187 3 gusting 9 31.7
2016-Aug-31 15:07 215 3 gusting 9 31.7
2016-Aug-31 15:02 219 3 gusting 10 31.7
2016-Aug-31 14:57 194 3 gusting 10 31.1
2016-Aug-31 14:52 223 3 gusting 10 31.1
2016-Aug-31 14:47 189 4 gusting 10 31.1
2016-Aug-31 14:42 225 3 gusting 9 31.1
2016-Aug-31 14:37 215 2 gusting 9 31.1
2016-Aug-31 14:32 197 2 gusting 9 31.1
2016-Aug-31 14:27 209 2 gusting 9 31.1
2016-Aug-31 14:22 209 3 gusting 8 31.1
2016-Aug-31 14:17 211 2 gusting 8 31.1
2016-Aug-31 14:12 231 2 gusting 7 31.1
2016-Aug-31 14:07 201 1 gusting 7 31.1
2016-Aug-31 14:02 216 1 gusting 7 30.6
2016-Aug-31 13:57 215 3 gusting 7 30.6
2016-Aug-31 13:52 221 4 gusting 7 30.6
2016-Aug-31 13:47 176 3 gusting 7 30.6
2016-Aug-31 13:42 180 2 gusting 8 30.6
2016-Aug-31 13:37 199 3 gusting 8 30.0
2016-Aug-31 13:32 183 2 gusting 8 30.0
2016-Aug-31 13:27 200 3 gusting 8 30.0
2016-Aug-31 13:22 146 3 gusting 8 30.0
2016-Aug-31 13:17 237 3 gusting 8 29.4
2016-Aug-31 13:12 215 4 gusting 9 29.4
2016-Aug-31 13:07 143 3 gusting 9 29.4
2016-Aug-31 13:02 159 4 gusting 10 29.4
2016-Aug-31 12:57 202 5 gusting 10 28.9
2016-Aug-31 12:52 181 4 gusting 12 28.9
2016-Aug-31 12:47 172 3 gusting 12 28.9
2016-Aug-31 12:42 236 4 gusting 13 28.3
2016-Aug-31 12:37 238 6 gusting 13 28.3
2016-Aug-31 12:32 216 5 gusting 13 27.8
2016-Aug-31 12:27 165 4 gusting 13 28.3
2016-Aug-31 12:22 182 5 gusting 12 28.3
2016-Aug-31 12:17 190 5 gusting 12 27.8
2016-Aug-31 12:12 158 5 gusting 12 27.8
2016-Aug-31 12:07 170 6 gusting 12 27.2
2016-Aug-31 12:02 158 6 gusting 13 27.2
2016-Aug-31 11:57 190 5 gusting 13 27.2
2016-Aug-31 11:52 223 6 gusting 13 26.7
2016-Aug-31 11:47 143 6 gusting 13 26.7
2016-Aug-31 11:42 140 6 gusting 12 26.7
2016-Aug-31 11:37 165 6 gusting 12 26.1
2016-Aug-31 11:32 180 6 gusting 12 26.1
2016-Aug-31 11:27 188 5 gusting 12 26.1
2016-Aug-31 11:22 186 4 gusting 13 26.1
2016-Aug-31 11:17 200 6 gusting 13 25.6
2016-Aug-31 11:12 178 6 gusting 15 25.6
2016-Aug-31 11:07 194 6 gusting 15 26.1
2016-Aug-31 11:02 181 6 gusting 15 25.6
2016-Aug-31 10:57 166 6 gusting 15 25.6
2016-Aug-31 10:52 155 6 gusting 14 25.6
2016-Aug-31 10:47 126 6 gusting 14 25.6
2016-Aug-31 10:42 166 6 gusting 12 25.6
2016-Aug-31 10:37 178 7 gusting 12 25.6
2016-Aug-31 10:32 141 6 gusting 9 25.6
2016-Aug-31 10:27 204 4 gusting 9 25.0
2016-Aug-31 10:22 165 4 gusting 9 25.0
2016-Aug-31 10:17 207 4 gusting 9 25.0
2016-Aug-31 10:12 196 4 gusting 8 24.4
2016-Aug-31 10:07 151 3 gusting 8 24.4
2016-Aug-31 10:02 153 2 gusting 5 24.4
2016-Aug-31 09:57 221 1 gusting 5 24.4
2016-Aug-31 09:52 186 0 gusting 6 24.4
2016-Aug-31 09:47 208 1 gusting 6 23.9
2016-Aug-31 09:42 224 2 gusting 6 23.9
2016-Aug-31 09:37 142 1 gusting 6 23.3
2016-Aug-31 09:32 213 1 gusting 6 23.3
2016-Aug-31 09:27 213 1 gusting 6 22.8
2016-Aug-31 09:22 248 1 gusting 6 22.8
2016-Aug-31 09:17 198 1 gusting 6 22.8
2016-Aug-31 09:12 227 1 gusting 6 22.8
2016-Aug-31 09:07 228 1 gusting 6 22.8
2016-Aug-31 09:02 277 0 gusting 6 22.8
2016-Aug-31 08:57 190 1 gusting 6 22.2
2016-Aug-31 08:52 167 3 gusting 6 22.2
2016-Aug-31 08:47 161 3 gusting 6 21.7
2016-Aug-31 08:42 205 3 gusting 6 21.7
2016-Aug-31 08:37 188 2 gusting 6 21.7
2016-Aug-31 08:32 168 2 gusting 6 21.7
2016-Aug-31 08:27 153 2 gusting 6 21.7
2016-Aug-31 08:22 205 2 gusting 5 21.7
2016-Aug-31 08:17 161 2 gusting 5 21.7
2016-Aug-31 08:12 215 1 gusting 5 21.1
2016-Aug-31 08:07 210 1 gusting 5 21.1
2016-Aug-31 08:02 218 2 gusting 6 21.1
2016-Aug-31 07:57 218 2 gusting 6 21.1
2016-Aug-31 07:52 218 2 gusting 6 21.1
2016-Aug-31 07:47 199 3 gusting 6 21.1
2016-Aug-31 07:42 203 3 gusting 6 21.1
2016-Aug-31 07:37 180 2 gusting 6 21.1
2016-Aug-31 07:32 204 2 gusting 6 21.1
2016-Aug-31 07:27 191 2 gusting 6 21.1
2016-Aug-31 07:22 191 2 gusting 8 20.6
2016-Aug-31 07:17 196 3 gusting 8 20.6
2016-Aug-31 07:12 227 4 gusting 9 20.6
2016-Aug-31 07:07 186 4 gusting 9 20.6
2016-Aug-31 07:02 206 4 gusting 7 20.6
2016-Aug-31 06:57 196 3 gusting 7 20.6
2016-Aug-31 06:52 209 3 gusting 7 20.6
2016-Aug-31 06:47 189 3 gusting 7 20.6
2016-Aug-31 06:42 198 3 gusting 6 20.6
2016-Aug-31 06:37 229 2 gusting 6 20.6
2016-Aug-31 06:32 196 2 gusting 5 20.6
2016-Aug-31 06:27 222 1 gusting 5 20.6
2016-Aug-31 06:22 211 1 gusting 5 20.6
2016-Aug-31 06:17 209 2 gusting 5 20.6
2016-Aug-31 06:12 183 1 gusting 3 20.6
2016-Aug-31 06:07 173 0 gusting 3 20.6
2016-Aug-31 06:02 222 0 gusting 3 20.6
2016-Aug-31 05:57 208 0 gusting 3 20.6
2016-Aug-31 05:52 217 0 gusting 4 20.6
2016-Aug-31 05:47 218 1 gusting 4 20.6
2016-Aug-31 05:42 220 1 gusting 2 20.6
2016-Aug-31 05:37 198 0 gusting 2 20.6
2016-Aug-31 05:32 204 0 gusting 3 20.6
2016-Aug-31 05:27 204 0 gusting 3 20.6
2016-Aug-31 05:22 204 0 gusting 3 20.6
2016-Aug-31 05:17 224 1 gusting 3 20.6
2016-Aug-31 05:12 191 0 gusting 4 21.1
2016-Aug-31 05:07 213 0 gusting 2 21.1
2016-Aug-31 05:02 211 0 gusting 2 21.1
2016-Aug-31 04:57 205 0 gusting 2 21.1
2016-Aug-31 04:52 223 0 gusting 3 21.1
2016-Aug-31 04:47 220 0 gusting 3 21.1
2016-Aug-31 04:42 221 0 gusting 2 21.1
2016-Aug-31 04:37 214 0 gusting 2 21.1
2016-Aug-31 04:32 229 0 gusting 2 21.1
2016-Aug-31 04:27 229 21.1
2016-Aug-31 04:22 207 0 gusting 3 21.1
2016-Aug-31 04:17 243 0 gusting 3 21.1
2016-Aug-31 04:12 243 0 gusting 4 21.1
2016-Aug-31 04:07 259 0 gusting 4 21.1
2016-Aug-31 04:02 206 0 gusting 4 21.1
2016-Aug-31 03:57 206 0 gusting 4 21.1
2016-Aug-31 03:52 223 0 gusting 2 21.1
2016-Aug-31 03:47 217 0 gusting 2 21.1
2016-Aug-31 03:42 232 0 gusting 2 21.1
2016-Aug-31 03:37 214 0 gusting 2 21.1
2016-Aug-31 03:32 214 0 gusting 1 21.1
2016-Aug-31 03:27 214 0 gusting 1 21.1
2016-Aug-31 03:22 214 0 gusting 2 21.1
2016-Aug-31 03:17 214 0 gusting 2 21.1
2016-Aug-31 03:12 214 0 gusting 2 21.1
2016-Aug-31 03:07 214 0 gusting 2 21.1
2016-Aug-31 03:02 224 0 gusting 3 21.1
2016-Aug-31 02:57 205 0 gusting 3 21.1
2016-Aug-31 02:52 207 0 gusting 3 21.1
2016-Aug-31 02:47 223 0 gusting 3 21.1
2016-Aug-31 02:42 217 0 gusting 1 21.1
2016-Aug-31 02:37 223 0 gusting 1 21.1
2016-Aug-31 02:32 219 0 gusting 3 21.1
2016-Aug-31 02:27 221 0 gusting 3 21.1
2016-Aug-31 02:22 191 0 gusting 3 21.1
2016-Aug-31 02:17 191 0 gusting 3 21.7
2016-Aug-31 02:12 200 0 gusting 3 21.7
2016-Aug-31 02:07 200 0 gusting 3 21.7
2016-Aug-31 02:02 200 1 gusting 3 21.7
2016-Aug-31 01:57 217 1 gusting 3 21.7
2016-Aug-31 01:52 205 0 gusting 3 21.7
2016-Aug-31 01:47 184 0 gusting 3 21.7
2016-Aug-31 01:42 176 0 gusting 3 21.7
2016-Aug-31 01:37 128 0 gusting 3 21.7
2016-Aug-31 01:32 115 0 gusting 3 21.7
2016-Aug-31 01:27 115 0 gusting 3 21.7
2016-Aug-31 01:22 135 0 gusting 3 21.7
2016-Aug-31 01:17 161 21.7
2016-Aug-31 01:12 161 0 gusting 3 21.7
2016-Aug-31 01:07 130 0 gusting 3 21.7
2016-Aug-31 01:02 148 0 gusting 3 21.7
2016-Aug-31 00:57 148 0 gusting 3 22.2
2016-Aug-31 00:52 131 0 gusting 4 22.2
2016-Aug-31 00:47 173 0 gusting 4 22.2
2016-Aug-31 00:42 141 0 gusting 3 22.2
2016-Aug-31 00:37 157 0 gusting 3 22.2
2016-Aug-31 00:32 158 0 gusting 3 22.2
2016-Aug-31 00:27 134 0 gusting 3 22.2
2016-Aug-31 00:22 200 1 gusting 3 22.2
2016-Aug-31 00:17 200 1 gusting 3 22.2
2016-Aug-31 00:12 205 1 gusting 4 22.8
2016-Aug-31 00:07 182 1 gusting 4 22.8
2016-Aug-31 00:02 193 1 gusting 4 22.8
2016-Aug-30 23:57 179 0 gusting 4 22.8
2016-Aug-30 23:52 149 1 gusting 4 22.8
2016-Aug-30 23:47 176 1 gusting 4 22.8
2016-Aug-30 23:42 182 1 gusting 4 22.8
2016-Aug-30 23:37 198 1 gusting 4 22.8
2016-Aug-30 23:32 219 1 gusting 4 23.3
2016-Aug-30 23:27 210 0 gusting 4 23.3
2016-Aug-30 23:22 212 0 gusting 2 23.3
2016-Aug-30 23:17 229 0 gusting 2 23.3
2016-Aug-30 23:12 229 0 gusting 4 23.3
2016-Aug-30 23:07 229 0 gusting 4 23.3
2016-Aug-30 23:02 231 0 gusting 4 23.3
2016-Aug-30 22:57 205 0 gusting 4 23.3
2016-Aug-30 22:52 154 0 gusting 2 23.3
2016-Aug-30 22:47 205 0 gusting 2 23.3
2016-Aug-30 22:42 205 0 gusting 4 23.3
2016-Aug-30 22:37 205 1 gusting 4 23.3
2016-Aug-30 22:32 209 1 gusting 5 23.3
2016-Aug-30 22:27 215 1 gusting 5 23.3
2016-Aug-30 22:22 194 2 gusting 6 23.3
2016-Aug-30 22:17 221 2 gusting 6 23.3
2016-Aug-30 22:12 219 3 gusting 8 23.3
2016-Aug-30 22:07 186 3 gusting 8 23.3
2016-Aug-30 22:02 214 4 gusting 8 23.3
2016-Aug-30 21:57 194 4 gusting 8 23.3
2016-Aug-30 21:52 162 3 gusting 7 23.3
2016-Aug-30 21:47 198 3 gusting 7 23.3
2016-Aug-30 21:42 221 4 gusting 7 23.9
2016-Aug-30 21:37 195 3 gusting 7 23.9
2016-Aug-30 21:32 186 3 gusting 6 23.9
2016-Aug-30 21:27 182 2 gusting 6 23.9
2016-Aug-30 21:22 200 1 gusting 7 23.9
2016-Aug-30 21:17 200 1 gusting 7 24.4
2016-Aug-30 21:12 200 3 gusting 11 24.4
2016-Aug-30 21:07 190 3 gusting 11 24.4
2016-Aug-30 21:02 196 4 gusting 11 24.4
2016-Aug-30 20:57 187 5 gusting 11 24.4
2016-Aug-30 20:52 189 5 gusting 6 24.4
2016-Aug-30 20:47 159 3 gusting 6 24.4
2016-Aug-30 20:42 177 3 gusting 10 25.0
2016-Aug-30 20:37 197 4 gusting 10 25.0
2016-Aug-30 20:32 190 3 gusting 6 25.0
2016-Aug-30 20:27 211 3 gusting 6 25.0
2016-Aug-30 20:22 189 3 gusting 6 25.0
2016-Aug-30 20:17 187 2 gusting 6 25.6
2016-Aug-30 20:12 192 2 gusting 3 25.6
2016-Aug-30 20:07 148 0 gusting 3 25.6
2016-Aug-30 20:02 209 25.6
2016-Aug-30 19:57 209 0 gusting 3 26.1
2016-Aug-30 19:52 209 0 gusting 6 26.1
2016-Aug-30 19:47 234 1 gusting 6 26.1
2016-Aug-30 19:42 165 3 gusting 7 26.1
2016-Aug-30 19:37 177 3 gusting 7 26.1
2016-Aug-30 19:32 142 3 gusting 8 26.7
2016-Aug-30 19:27 163 3 gusting 8 26.7
2016-Aug-30 19:22 188 3 gusting 13 26.7
2016-Aug-30 19:17 181 3 gusting 13 26.7
2016-Aug-30 19:12 182 5 gusting 12 26.7
2016-Aug-30 19:07 155 6 gusting 12 27.2
2016-Aug-30 19:02 183 5 gusting 9 27.2
2016-Aug-30 18:57 199 3 gusting 9 27.8
2016-Aug-30 18:52 182 3 gusting 13 27.8
2016-Aug-30 18:47 199 4 gusting 13 28.3
2016-Aug-30 18:42 202 5 gusting 12 28.3
2016-Aug-30 18:37 211 6 gusting 12 28.3
2016-Aug-30 18:32 182 5 gusting 13 28.9
2016-Aug-30 18:27 167 4 gusting 13 29.4
2016-Aug-30 18:22 201 5 gusting 15 29.4
2016-Aug-30 18:17 190 6 gusting 15 30.0
2016-Aug-30 18:12 199 6 gusting 16 30.0
2016-Aug-30 18:07 198 7 gusting 16 30.6
2016-Aug-30 18:02 204 6 gusting 16 30.6
2016-Aug-30 17:57 225 7 gusting 16 31.1
2016-Aug-30 17:52 218 7 gusting 14 31.1
2016-Aug-30 17:47 227 6 gusting 14 31.7
2016-Aug-30 17:42 215 7 gusting 15 31.7
2016-Aug-30 17:37 178 7 gusting 15 32.2
2016-Aug-30 17:32 146 6 gusting 13 32.8
2016-Aug-30 17:27 226 7 gusting 13 32.8
2016-Aug-30 17:22 195 7 gusting 13 32.8
2016-Aug-30 17:17 232 7 gusting 13 32.8
2016-Aug-30 17:12 227 6 gusting 13 32.8
2016-Aug-30 17:07 225 6 gusting 13 33.3
2016-Aug-30 17:02 207 6 gusting 13 33.3
2016-Aug-30 16:57 216 6 gusting 13 33.3
2016-Aug-30 16:52 229 7 gusting 13 33.3
2016-Aug-30 16:47 246 7 gusting 13 33.3
2016-Aug-30 16:42 224 7 gusting 16 33.3
2016-Aug-30 16:37 252 7 gusting 16 33.3
2016-Aug-30 16:32 217 8 gusting 15 33.9
2016-Aug-30 16:27 222 8 gusting 15 33.3
2016-Aug-30 16:22 203 8 gusting 16 33.3
2016-Aug-30 16:17 187 8 gusting 16 33.3
2016-Aug-30 16:12 215 7 gusting 18 33.9
2016-Aug-30 16:07 215 8 gusting 18 33.9
2016-Aug-30 16:02 215 9 gusting 18 33.3
2016-Aug-30 15:57 191 9 gusting 18 33.9
2016-Aug-30 15:52 200 8 gusting 15 33.9
2016-Aug-30 15:47 200 7 gusting 15 33.9
2016-Aug-30 15:42 225 7 gusting 15 33.9
2016-Aug-30 15:37 219 8 gusting 15 33.9
2016-Aug-30 15:32 253 7 gusting 19 34.4
2016-Aug-30 15:27 209 8 gusting 19 34.4
2016-Aug-30 15:22 225 9 gusting 17 33.9
2016-Aug-30 15:17 217 8 gusting 17 34.4
2016-Aug-30 15:12 219 8 gusting 17 34.4
2016-Aug-30 15:07 210 8 gusting 17 34.4
2016-Aug-30 15:02 199 8 gusting 17 34.4
2016-Aug-30 14:57 204 8 gusting 17 34.4
2016-Aug-30 14:52 219 7 gusting 16 34.4
2016-Aug-30 14:47 219 6 gusting 16 34.4
2016-Aug-30 14:42 212 8 gusting 16 34.4
2016-Aug-30 14:37 213 9 gusting 16 34.4
2016-Aug-30 14:32 198 7 gusting 15 34.4
2016-Aug-30 14:27 249 7 gusting 15 34.4
2016-Aug-30 14:22 231 7 gusting 18 34.4
2016-Aug-30 14:17 196 6 gusting 18 33.9
2016-Aug-30 14:12 217 7 gusting 18 33.9
2016-Aug-30 14:07 250 8 gusting 18 33.9
2016-Aug-30 14:02 209 6 gusting 12 33.9
2016-Aug-30 13:57 212 6 gusting 12 33.9
2016-Aug-30 13:52 228 6 gusting 15 33.9
2016-Aug-30 13:47 191 6 gusting 15 33.9
2016-Aug-30 13:42 215 7 gusting 15 33.9
2016-Aug-30 13:37 219 6 gusting 15 33.9
2016-Aug-30 13:32 217 6 gusting 15 33.9
2016-Aug-30 13:27 189 6 gusting 15 33.9
2016-Aug-30 13:22 234 6 gusting 12 33.9
2016-Aug-30 13:17 179 6 gusting 12 33.9
2016-Aug-30 13:12 198 5 gusting 16 33.9
2016-Aug-30 13:07 197 6 gusting 16 33.9
2016-Aug-30 13:02 205 6 gusting 16 33.3
2016-Aug-30 12:57 190 7 gusting 16 33.3
2016-Aug-30 12:52 202 7 gusting 13 33.3
2016-Aug-30 12:47 133 6 gusting 13 33.3
2016-Aug-30 12:42 225 6 gusting 15 32.8
2016-Aug-30 12:37 207 7 gusting 15 32.8
2016-Aug-30 12:32 163 6 gusting 15 32.8
2016-Aug-30 12:27 207 6 gusting 15 32.8
2016-Aug-30 12:22 232 6 gusting 13 32.8
2016-Aug-30 12:17 206 7 gusting 13 32.2
2016-Aug-30 12:12 215 7 gusting 16 32.2
2016-Aug-30 12:07 188 7 gusting 16 31.7
2016-Aug-30 12:02 204 6 gusting 15 31.7
2016-Aug-30 11:57 184 6 gusting 15 31.7
2016-Aug-30 11:52 190 6 gusting 15 31.7
2016-Aug-30 11:47 204 6 gusting 15 31.1
2016-Aug-30 11:42 190 6 gusting 13 31.1
2016-Aug-30 11:37 173 6 gusting 13 31.1
2016-Aug-30 11:32 182 6 gusting 13 30.6
2016-Aug-30 11:27 176 6 gusting 13 30.6
2016-Aug-30 11:22 173 6 gusting 13 30.6
2016-Aug-30 11:17 205 6 gusting 13 30.6
2016-Aug-30 11:12 193 6 gusting 12 30.0
2016-Aug-30 11:07 232 5 gusting 12 30.0
2016-Aug-30 11:02 190 5 gusting 12 30.0
2016-Aug-30 10:57 219 5 gusting 12 29.4
2016-Aug-30 10:52 234 4 gusting 9 29.4
2016-Aug-30 10:47 149 4 gusting 9 29.4
2016-Aug-30 10:42 193 4 gusting 9 29.4
2016-Aug-30 10:37 161 3 gusting 9 29.4
2016-Aug-30 10:32 222 3 gusting 9 28.9
2016-Aug-30 10:27 212 4 gusting 9 28.9
2016-Aug-30 10:22 186 2 gusting 7 28.9
2016-Aug-30 10:17 212 2 gusting 7 28.3
2016-Aug-30 10:12 159 3 gusting 8 28.3
2016-Aug-30 10:07 226 3 gusting 8 28.3
2016-Aug-30 10:02 174 3 gusting 8 28.3
2016-Aug-30 09:57 221 4 gusting 8 28.3
2016-Aug-30 09:52 169 4 gusting 7 27.8
2016-Aug-30 09:47 165 2 gusting 7 27.8
2016-Aug-30 09:42 207 2 gusting 7 27.8
2016-Aug-30 09:37 207 3 gusting 7 27.8
2016-Aug-30 09:32 215 3 gusting 7 27.8
2016-Aug-30 09:27 226 3 gusting 7 27.2
2016-Aug-30 09:22 198 4 gusting 7 27.2
2016-Aug-30 09:17 205 4 gusting 7 27.2
2016-Aug-30 09:12 216 3 gusting 7 27.2
2016-Aug-30 09:07 197 3 gusting 7 27.2
2016-Aug-30 09:02 216 4 gusting 8 26.7
2016-Aug-30 08:57 205 3 gusting 8 26.7
2016-Aug-30 08:52 217 3 gusting 8 26.7
2016-Aug-30 08:47 213 2 gusting 8 26.7
2016-Aug-30 08:42 209 1 gusting 5 26.1
2016-Aug-30 08:37 116 1 gusting 5 25.6
2016-Aug-30 08:32 102 1 gusting 5 25.6
2016-Aug-30 08:27 130 1 gusting 5 25.6
2016-Aug-30 08:22 101 0 gusting 4 25.6
2016-Aug-30 08:17 118 0 gusting 4 25.6
2016-Aug-30 08:12 113 1 gusting 2 25.0
2016-Aug-30 08:07 113 0 gusting 2 25.0
2016-Aug-30 08:02 145 25.0
2016-Aug-30 07:57 082 25.0
2016-Aug-30 07:52 066 24.4
2016-Aug-30 07:47 066 24.4
2016-Aug-30 07:42 051 23.9
2016-Aug-30 07:37 051 23.9
2016-Aug-30 07:32 051 23.3
2016-Aug-30 07:27 022 22.8
2016-Aug-30 07:22 022 22.2
2016-Aug-30 07:17 022 21.7
2016-Aug-30 07:12 022 21.7
2016-Aug-30 07:07 022 21.7
2016-Aug-30 07:02 022 21.1
2016-Aug-30 06:57 022 21.1
2016-Aug-30 06:52 022 21.1
2016-Aug-30 06:47 022 21.1
2016-Aug-30 06:42 022 21.1
2016-Aug-30 06:37 022 0 gusting 1 21.1
2016-Aug-30 06:32 022 0 gusting 2 21.1
2016-Aug-30 06:27 023 0 gusting 3 21.1
2016-Aug-30 06:22 005 0 gusting 3 21.1
2016-Aug-30 06:17 325 0 gusting 3 21.1
2016-Aug-30 06:12 260 0 gusting 3 21.1
2016-Aug-30 06:07 260 1 gusting 3 21.1
2016-Aug-30 06:02 192 0 gusting 2 21.1
2016-Aug-30 05:57 192 0 gusting 2 21.7
2016-Aug-30 05:52 192 0 21.7
2016-Aug-30 05:47 192 22.2
2016-Aug-30 05:42 192 22.2
2016-Aug-30 05:37 192 22.2
2016-Aug-30 05:32 192 22.2
2016-Aug-30 05:27 192 22.2
2016-Aug-30 05:22 192 22.2
2016-Aug-30 05:17 192 22.2
2016-Aug-30 05:12 192 22.8
2016-Aug-30 05:07 192 22.8
2016-Aug-30 05:02 192 22.8
2016-Aug-30 04:57 192 0 gusting 2 22.8
2016-Aug-30 04:52 192 23.3
2016-Aug-30 04:47 192 23.3
2016-Aug-30 04:42 192 23.3
2016-Aug-30 04:37 192 23.3
2016-Aug-30 04:32 192 23.3
2016-Aug-30 04:27 192 23.3
2016-Aug-30 04:22 192 23.3
2016-Aug-30 04:17 192 23.9
2016-Aug-30 04:12 192 23.9
2016-Aug-30 04:07 192 23.9
2016-Aug-30 04:02 192 23.9
2016-Aug-30 03:57 192 23.9
2016-Aug-30 03:52 192 23.9
2016-Aug-30 03:47 192 23.9
2016-Aug-30 03:42 192 23.9
2016-Aug-30 03:37 192 23.9
2016-Aug-30 03:32 192 23.9
2016-Aug-30 03:27 192 23.9
2016-Aug-30 03:22 192 23.9
2016-Aug-30 03:17 192 23.9
2016-Aug-30 03:12 192 0 gusting 3 23.3
2016-Aug-30 03:07 192 0 gusting 3 23.3
2016-Aug-30 03:02 192 0 gusting 4 23.9
2016-Aug-30 02:57 192 1 gusting 4 23.3
2016-Aug-30 02:52 192 1 gusting 3 23.9
2016-Aug-30 02:47 192 1 gusting 3 23.9
2016-Aug-30 02:42 192 0 gusting 2 23.9
2016-Aug-30 02:37 192 24.4
2016-Aug-30 02:32 192 24.4
2016-Aug-30 02:27 192 0 gusting 2 24.4
2016-Aug-30 02:22 192 0 gusting 2 24.4
2016-Aug-30 02:17 192 24.4
2016-Aug-30 02:12 192 24.4
2016-Aug-30 01:52 309 25.0
2016-Aug-30 01:37 309 25.6
2016-Aug-30 01:32 309 26.1
2016-Aug-30 01:22 267 26.7
2016-Aug-30 01:17 267 27.2
2016-Aug-30 01:12 267 0 gusting 4 27.8
2016-Aug-30 01:07 267 0 gusting 4 27.8
2016-Aug-30 00:57 276 0 gusting 4 27.2
2016-Aug-30 00:47 276 0 gusting 2 27.2
2016-Aug-30 00:37 276 27.2
2016-Aug-30 00:32 276 27.2
2016-Aug-30 00:27 276 27.8
2016-Aug-30 00:22 276 27.8
2016-Aug-30 00:17 276 28.3
2016-Aug-30 00:12 276 28.9
2016-Aug-30 00:07 276 29.4
2016-Aug-30 00:02 276 0 gusting 5 29.4
2016-Aug-29 23:57 276 1 gusting 5 29.4
2016-Aug-29 23:47 277 3 gusting 6 29.4
2016-Aug-29 23:42 266 4 gusting 7 29.4
2016-Aug-29 23:37 261 4 gusting 7 29.4
2016-Aug-29 23:32 263 5 gusting 7 29.4
2016-Aug-29 23:27 265 5 gusting 7 30.0
2016-Aug-29 23:17 275 5 gusting 8 30.0
2016-Aug-29 23:02 274 6 gusting 9 30.0